Location: McFarlands Corners
(41.4117°N, 81.3382°W)
Time: 07:18:53
(UTC+00:00)

Transit 4A - Pass Details

Date: 19 February 2026
Orbit: 864 x 977 km, 66.8° (Epoch: 9 March)

Event Time Altitude Azimuth Distance (km) Brightness Sun altitude
Rises 07:26:47 0° 169° (SSE) 3,437 - -51.7°
Reaches altitude 10° 07:29:45 10° 154° (SSE) 2,514 - -51.3°
Maximum altitude 07:34:05 22° 105° (ESE) 1,829 - -50.7°
Drops below altitude 10° 07:38:29 10° 57° (ENE) 2,572 - -50.1°
Exits shadow 07:38:55 - 55° (NE) 2,696 10.8 -50.0°
Sets 07:41:33 0° 43° (NE) 3,537 11.6 -49.6°
